Total_Precipitation_Accumulation
3.02 3.37 3.94 3.40 2.84 2.74 2.82 2.73 2.59 2.46 2.32 2.32 2.25 2.10 1.85 1.60 1.50 1.45 1.35 1.27 1.17 1.15 1.13 1.18 1.20 1.17 1.31 1.50 1.59 1.62 1.67 1.77 1.99 2.28 2.45 2.44 2.52 2.68 2.95 3.16 3.02 2.28 2.16
2.40 2.88 3.39 3.08 2.57 2.48 2.46 2.55 2.46 2.35 2.38 2.31 2.30 2.09 1.91 1.73 1.54 1.40 1.27 1.16 1.13 1.13 1.03 1.05 1.12 1.07 1.16 1.33 1.48 1.51 1.66 1.96 2.44 2.91 3.11 2.84 2.83 2.95 3.05 3.03 2.95 2.38 2.10
1.88 2.16 2.48 2.62 2.41 2.30 2.16 2.25 2.27 2.21 2.25 2.14 2.06 1.92 1.87 1.73 1.46 1.25 1.16 1.15 1.19 1.15 1.01 1.05 1.08 1.02 1.13 1.32 1.42 1.44 1.68 2.15 2.85 3.67 3.86 3.12 2.70 2.98 3.05 2.90 2.59 2.17 1.92
1.52 1.90 1.94 2.23 2.16 2.04 1.98 2.08 2.06 2.07 2.01 1.98 1.87 1.75 1.70 1.67 1.40 1.14 1.07 1.09 1.08 1.04 1.02 1.08 1.09 1.11 1.12 1.20 1.32 1.56 1.87 2.18 2.86 3.48 3.46 2.56 2.14 2.44 2.66 2.33 2.07 1.89 1.69
1.39 1.67 1.95 2.06 1.89 1.81 1.73 1.80 1.81 1.81 1.82 1.89 1.76 1.65 1.56 1.46 1.29 1.10 1.01 1.04 1.02 1.02 1.00 1.03 1.15 1.20 1.15 1.17 1.33 1.64 2.02 2.41 2.86 3.08 2.59 2.69 2.57 2.32 2.19 2.00 1.85 1.62 1.42
1.16 1.26 1.62 1.79 1.68 1.67 1.58 1.52 1.63 1.67 1.74 1.79 1.70 1.56 1.59 1.52 1.41 1.18 1.03 1.01 1.04 1.06 1.08 1.10 1.23 1.25 1.14 1.13 1.32 1.68 2.03 2.51 2.67 2.07 1.68 2.03 2.03 2.01 1.97 1.90 1.71 1.52 1.40
1.08 1.13 1.35 1.64 1.56 1.52 1.47 1.42 1.51 1.59 1.61 1.60 1.61 1.43 1.48 1.50 1.40 1.20 1.07 1.03 0.98 1.02 1.12 1.15 1.21 1.21 1.16 1.21 1.34 1.65 2.09 2.45 2.24 1.63 1.43 1.72 1.61 1.68 1.87 1.90 1.83 1.57 1.34
1.05 1.07 1.31 1.60 1.56 1.50 1.47 1.48 1.57 1.63 1.50 1.45 1.46 1.34 1.34 1.39 1.36 1.27 1.16 1.11 1.02 1.04 1.16 1.18 1.17 1.13 1.16 1.29 1.49 1.67 2.10 2.09 1.64 1.47 1.39 1.49 1.22 1.52 1.76 1.72 1.64 1.48 1.29
1.38 1.35 1.39 1.43 1.47 1.51 1.68 1.76 1.84 1.75 1.49 1.41 1.41 1.32 1.24 1.23 1.23 1.17 1.21 1.19 1.14 1.14 1.21 1.28 1.25 1.23 1.28 1.38 1.52 1.74 2.14 2.27 1.90 1.73 1.48 1.51 1.22 1.53 1.84 1.66 1.45 1.36 1.38
2.17 2.00 1.76 1.60 1.67 1.57 1.64 1.88 2.00 1.70 1.46 1.40 1.46 1.42 1.35 1.40 1.43 1.46 1.38 1.34 1.40 1.49 1.53 1.59 1.51 1.45 1.51 1.60 1.76 1.96 2.22 2.09 1.93 2.06 1.91 1.53 1.31 1.65 1.92 1.95 1.72 1.49 1.40
2.66 2.47 2.19 1.95 1.76 1.80 1.79 1.84 2.15 1.93 1.68 1.75 1.96 1.96 2.06 2.43 2.24 2.26 1.79 1.74 1.89 2.07 2.15 2.19 2.13 1.99 1.89 1.82 2.05 2.27 2.15 1.99 2.36 2.49 2.23 1.56 1.58 2.06 2.24 2.29 2.11 1.90 1.75
2.69 2.42 2.29 2.23 1.90 1.86 1.96 2.36 2.83 2.44 2.28 2.39 2.69 2.62 2.93 2.97 2.79 2.10 2.09 2.37 2.56 2.89 3.02 3.05 3.07 2.71 2.35 2.13 2.36 2.40 2.15 2.26 2.69 2.30 1.93 1.56 1.75 2.23 2.53 2.57 2.35 2.08 2.01
2.55 2.45 2.22 2.50 2.25 2.30 2.63 2.70 2.87 2.91 2.80 2.80 2.90 2.88 3.13 2.80 2.46 2.37 2.75 3.12 3.37 3.50 3.63 3.66 3.55 3.03 3.05 3.18 3.12 2.83 2.71 2.62 2.86 2.45 1.91 1.77 1.96 2.36 2.69 2.75 2.52 2.32 2.18
2.48 2.44 2.49 2.64 2.71 2.92 2.94 2.80 2.66 2.45 2.45 2.60 2.77 2.73 2.88 2.97 2.98 2.95 3.21 3.39 3.63 3.95 4.32 4.19 4.18 3.85 3.79 3.52 3.30 3.30 3.09 2.74 3.03 3.07 2.47 2.08 2.22 2.65 2.89 2.88 2.72 2.59 2.60
3.11 2.96 3.04 3.26 3.24 3.18 3.20 2.93 2.48 2.31 2.18 2.21 2.35 2.45 2.39 2.74 3.06 3.11 3.03 3.16 3.10 3.29 3.70 4.30 4.19 4.34 4.23 3.80 3.31 3.19 3.28 3.12 3.06 2.98 2.52 2.45 2.68 2.77 2.86 2.89 2.92 2.89 2.89
4.08 3.87 3.71 3.86 3.48 3.26 3.20 2.95 2.71 2.36 2.35 2.22 2.16 2.08 2.24 2.52 2.85 2.84 2.83 3.12 3.15 3.05 3.19 3.67 3.83 4.24 4.19 3.82 3.24 2.95 2.97 3.02 2.91 2.81 2.61 2.54 2.63 2.51 2.60 2.97 3.33 3.47 3.38
5.19 4.77 4.20 3.97 3.69 3.49 3.36 3.02 2.68 2.49 2.29 2.40 2.37 2.18 2.19 2.31 2.55 2.57 2.69 2.76 2.80 2.69 2.80 3.02 3.23 3.51 3.43 3.28 3.22 2.99 2.85 2.75 2.57 2.63 2.67 2.56 2.30 2.44 2.55 2.78 3.14 3.40 3.60
5.95 5.39 4.67 3.94 4.03 3.98 3.78 3.18 2.72 2.51 2.43 2.40 2.27 2.09 1.94 2.06 2.06 2.20 2.27 2.27 2.31 2.18 2.34 2.71 2.75 2.99 3.15 3.15 3.31 3.03 2.82 2.85 2.62 2.59 2.60 2.63 2.65 2.32 2.62 2.75 2.90 3.08 3.44
6.08 5.92 5.31 5.17 4.98 4.35 3.69 3.11 2.72 2.51 2.47 2.25 2.15 2.08 1.95 1.84 1.93 2.10 2.24 2.30 1.97 2.01 2.16 1.99 2.44 2.69 2.89 2.93 2.52 2.62 2.38 2.44 2.41 2.10 2.20 2.16 2.40 2.47 2.67 2.58 2.75 2.80 3.15
5.09 5.00 4.94 5.09 4.68 4.09 3.48 3.06 2.83 2.58 2.32 2.14 2.07 2.11 2.06 1.98 2.01 2.34 2.16 2.03 1.85 2.17 2.45 2.50 2.84 2.77 2.62 2.64 2.17 2.25 2.09 1.95 2.03 1.93 1.84 1.93 2.06 2.02 2.40 2.60 2.66 2.34 2.67
3.57 3.68 4.00 4.22 3.97 3.53 3.16 2.71 2.57 2.49 2.27 2.07 1.97 1.82 2.00 1.96 2.19 2.52 2.29 2.56 2.22 2.23 2.41 2.46 2.71 2.65 2.33 2.25 2.66 2.71 2.14 1.72 1.77 1.66 1.63 1.84 1.83 1.94 2.33 2.64 2.81 2.76 2.54
2.78 3.07 3.42 3.67 3.50 2.94 2.73 2.57 2.47 2.42 2.24 2.24 2.15 2.16 1.93 1.93 2.16 2.20 2.55 2.35 2.37 2.47 2.52 2.63 2.78 2.77 2.47 2.37 2.78 3.13 2.75 2.65 2.30 1.54 1.62 1.76 1.78 2.02 2.09 2.11 2.41 2.83 2.71
2.65 2.87 2.76 2.99 3.16 2.88 2.76 2.68 2.61 2.58 2.40 2.49 2.45 2.35 1.97 1.83 1.84 2.03 2.22 2.22 2.44 2.24 2.58 2.82 2.77 2.88 2.86 2.66 2.70 3.10 3.11 2.96 2.48 1.93 1.56 1.58 1.81 2.20 2.20 2.23 2.08 2.39 2.67
1.96 2.24 2.59 2.89 2.97 2.86 2.71 2.48 2.36 2.20 2.14 2.17 2.18 2.19 2.07 1.95 1.82 1.91 2.06 2.33 2.49 2.23 2.76 2.38 2.51 2.76 2.91 2.72 2.68 2.49 2.56 2.77 2.84 2.62 2.11 1.68 1.69 1.92 2.13 1.97 1.96 2.30 2.61
1.41 1.80 2.36 2.81 3.02 2.90 2.56 2.40 2.44 2.27 2.21 2.18 2.10 2.30 2.16 2.00 1.84 1.77 2.05 2.30 2.42 2.30 2.46 2.52 2.80 2.69 2.63 2.61 2.64 2.66 2.76 2.73 2.49 2.65 2.58 2.27 1.99 1.56 1.48 1.65 1.93 2.11 2.32
1.21 1.47 1.91 2.32 2.55 2.61 2.48 2.37 2.43 2.45 2.40 2.26 2.11 2.12 1.97 1.93 1.88 1.81 2.01 2.31 2.27 2.30 2.47 2.46 2.60 2.60 2.65 2.73 2.56 2.48 2.71 2.69 2.59 2.66 2.36 2.18 2.14 1.55 1.33 1.38 1.56 1.96 2.15